INTELSAT 902 (IS-902)

Last updated on Thu Sep 10 2026 00:02:55 GMT+0000 (Coordinated Universal Time)

1 26900U 01039A 26252.43304676 -.00000301 00000+0 00000+0 0 9993 2 26900 6.3234 70.7162 0004112 96.5156 287.0311 1.00270978 91545
UTC large
Height (km)
Speed (km/s)
/
Latitude / Longitude
Inclination (degrees)
Orbital Period (minutes)
Azimuth
Elevation
Range (km)
Doppler Factor

Next 0 passes for location: London (51.5072 / 0.1276)

No passes found over London.
INTELSAT 902 (IS-902)